Salem, OR

1:36 PM PST on November 23, 2017 (GMT -0800)
McNary

Weather History for KSLE - November, 2013

Change the Weather History Date:

Saturday, November 2, 2013

  Actual Average Record
Temperature  
Mean Temperature 51 °F 48 °F  
Max Temperature 57 °F 57 °F 72 °F (1970)
Min Temperature 44 °F 40 °F 13 °F (1936)
Degree Days  
Heating Degree Days 14 16  
Month to date heating degree days 26 32  
Since 1 July heating degree days 496 564  
Cooling Degree Days 0 0  
Month to date cooling degree days 0 0  
Year to date cooling degree days 502 290  
Growing Degree Days 1 (Base 50)    
Moisture  
Dew Point 46 °F    
Average Humidity 74    
Maximum Humidity 93    
Minimum Humidity 55    
Precipitation  
Precipitation 0.39 in 0.16 in 1.66 in (1984)
Month to date precipitation 0.42 0.32  
Year to date precipitation 20.07 26.63  
Snow  
Snow 0.00 in - - ()
Snow Depth 0.00 in    
Sea Level Pressure  
Sea Level Pressure 29.92 in    
Wind  
Wind Speed 9 mph (SSW)    
Max Wind Speed 23 mph    
Max Gust Speed 31 mph    
Visibility 9 miles    
Events Rain    
T = Trace of Precipitation, MM = Missing Value Source: NWS Daily Summary

Daily Weather History Graph

Daily Weather History Graph

Search for Another Location

Airport or City:

Trip Planner

Search our weather history database for the weather conditions in past years. The results will help you decide how hot, cold, wet, or windy it might be!

Date:

Astronomy

Nov. 02, 2013 Rise Set
Actual Time 7:52 AM PDT 5:58 PM PDT
Civil Twilight 7:21 AM PDT 6:29 PM PDT
Nautical Twilight 6:46 AM PDT 7:03 PM PDT
Astronomical Twilight 6:12 AM PDT 7:37 PM PDT
Moon 6:53 AM PDT (11/2) 5:34 PM PDT (11/2)
Length of Visible Light 11h 07m
Length of Day
10h 06m
Waning Crescent, 1% of the Moon is Illuminated
Nov 2
Waning Crescent
Nov 3
New
Nov 9
First Quarter
Nov 17
Full
Nov 25
Last Quarter

Hourly Weather History & Observations

Time (PDT) Temp. Windchill Dew Point Humidity Pressure Visibility Wind Dir Wind Speed Gust Speed Precip Events Conditions
12:07 AM 51.8 °F - 48.2 °F 88% 29.92 in 8.0 mi Calm Calm - N/A   Overcast
12:56 AM 52.0 °F - 50.0 °F 93% 29.88 in 4.0 mi SSE 3.5 mph - 0.02 in Rain Rain
1:56 AM 53.1 °F - 51.1 °F 93% 29.85 in 5.0 mi SSE 5.8 mph - 0.06 in Rain Rain
2:05 AM 51.8 °F - 51.8 °F 100% 29.86 in 5.0 mi SSW 4.6 mph - 0.02 in Rain Light Rain
2:44 AM 53.6 °F - 51.8 °F 94% 29.86 in 7.0 mi South 8.1 mph - 0.06 in Rain Light Rain
2:56 AM 53.1 °F - 51.1 °F 93% 29.84 in 4.0 mi SSE 13.8 mph 19.6 mph 0.07 in Rain Rain
3:56 AM 53.1 °F - 51.1 °F 93% 29.79 in 10.0 mi South 13.8 mph 20.7 mph 0.10 in Rain Light Rain
4:25 AM 53.6 °F - 51.8 °F 94% 29.79 in 9.0 mi South 13.8 mph - 0.00 in   Overcast
4:56 AM 53.1 °F - 51.1 °F 93% 29.79 in 9.0 mi South 15.0 mph 21.9 mph 0.05 in Rain Light Rain
5:07 AM 53.6 °F - 50.0 °F 88% 29.79 in 9.0 mi South 18.4 mph 24.2 mph 0.01 in Rain Light Rain
5:25 AM 53.6 °F - 50.0 °F 88% 29.77 in 9.0 mi South 21.9 mph 26.5 mph 0.03 in Rain Light Rain
5:41 AM 53.6 °F - 50.0 °F 88% 29.78 in 10.0 mi South 19.6 mph 31.1 mph 0.03 in Rain Light Rain
5:54 AM 53.6 °F - 50.0 °F 88% 29.79 in 10.0 mi South 15.0 mph 24.2 mph 0.03 in   Overcast
5:56 AM 53.1 °F - 50.0 °F 89% 29.78 in 10.0 mi South 17.3 mph 24.2 mph 0.03 in   Overcast
6:16 AM 53.6 °F - 50.0 °F 88% 29.79 in 10.0 mi South 17.3 mph 24.2 mph N/A   Overcast
6:26 AM 53.6 °F - 50.0 °F 88% 29.80 in 10.0 mi South 18.4 mph 27.6 mph N/A   Overcast
6:37 AM 53.6 °F - 50.0 °F 88% 29.80 in 10.0 mi South 16.1 mph - N/A   Overcast
6:43 AM 53.6 °F - 50.0 °F 88% 29.80 in 10.0 mi South 17.3 mph 23.0 mph N/A   Overcast
6:56 AM 53.1 °F - 50.0 °F 89% 29.81 in 10.0 mi South 17.3 mph - N/A   Overcast
7:56 AM 52.0 °F - 46.9 °F 83% 29.87 in 10.0 mi SW 12.7 mph - N/A   Overcast
8:56 AM 52.0 °F - 46.0 °F 80% 29.92 in 10.0 mi SW 10.4 mph - 0.00 in Rain Light Rain
9:56 AM 52.0 °F - 46.9 °F 83% 29.95 in 10.0 mi SSW 11.5 mph - 0.01 in   Mostly Cloudy
10:56 AM 55.0 °F - 43.0 °F 64% 29.99 in 10.0 mi West 4.6 mph - 0.00 in   Overcast
11:56 AM 55.0 °F - 42.1 °F 62% 30.01 in 10.0 mi SW 6.9 mph - N/A   Overcast
12:56 PM 57.0 °F - 43.0 °F 59% 30.02 in 10.0 mi Variable 6.9 mph - N/A   Overcast
1:56 PM 55.0 °F - 39.9 °F 57% 30.03 in 10.0 mi WSW 9.2 mph - 0.00 in   Mostly Cloudy
2:56 PM 51.1 °F - 44.1 °F 77% 30.04 in 7.0 mi SW 10.4 mph - 0.05 in Rain Light Rain
3:56 PM 51.1 °F - 42.1 °F 71% 30.04 in 10.0 mi West 9.2 mph 19.6 mph 0.00 in   Mostly Cloudy
4:56 PM 53.1 °F - 41.0 °F 64% 30.06 in 10.0 mi West 12.7 mph 24.2 mph 0.00 in Rain Light Rain
5:56 PM 51.1 °F - 39.9 °F 66% 30.08 in 10.0 mi SW 4.6 mph - N/A   Mostly Cloudy
6:56 PM 48.9 °F - 39.0 °F 69% 30.08 in 10.0 mi SSW 8.1 mph - N/A   Mostly Cloudy
7:56 PM 48.0 °F - 39.9 °F 74% 30.09 in 10.0 mi WSW 3.5 mph - 0.01 in Rain Light Rain
8:56 PM 45.0 °F 41.2 °F 39.9 °F 82% 30.08 in 10.0 mi South 6.9 mph - 0.00 in   Mostly Cloudy
9:56 PM 46.9 °F - 39.9 °F 77% 30.08 in 10.0 mi SSW 8.1 mph - N/A   Overcast
10:56 PM 46.9 °F - 42.1 °F 83% 30.09 in 10.0 mi South 9.2 mph - 0.01 in Rain Light Rain
11:56 PM 46.0 °F 44.8 °F 41.0 °F 83% 30.09 in 10.0 mi Variable 3.5 mph - 0.00 in   Mostly Cloudy